Regional Weather Roundup
Issued by NWS Green Bay, WI

Home | Current Version | Previous Version | Graphics & Text | Print | Product List | Glossary Off
Versions: 1 2 3 4 5 6 7 8 9 10 11 12 13 14 15 16 17 18 19 20 21 22 23 24 25 26 27 28 29 30 31 32 33 34 35 36 37 38 39 40 41 42 43 44 45 46 47 48 49 50

000
ASUS43 KGRB 201159
RWRGRB

NORTH-CENTRAL AND NORTHEAST WISCONSIN REGIONAL WEATHER ROUNDUP
NATIONAL WEATHER SERVICE GREEN BAY WI
700 AM CDT WED AUG 20 2014

WIZ005-009-010>012-018-019-201300-
NORTH CENTRAL WISCONSIN

CITY           SKY/WX    TMP DP  RH WIND       PRES   REMARKS
IRONWOOD       CLOUDY    57  55  94 CALM      29.84R
MANITOWISH WTR NOT AVBL
ARBOR VITAE    NOT AVBL
EAGLE RIVER    NOT AVBL
LAND O LAKES   NOT AVBL
RHINELANDER    CLOUDY    59  58  96 CALM      29.87R
PHILLIPS       CLOUDY    58  57  97 CALM      29.87R
ANTIGO         NOT AVBL
TOMAHAWK       NOT AVBL
MERRILL        NOT AVBL
$$

WIZ013-073-201300-
NORTHEAST WISCONSIN

CITY           SKY/WX    TMP DP  RH WIND       PRES   REMARKS
IRON MOUNTAIN  CLOUDY    59  56  89 NW7       29.82S
MARINETTE      CLOUDY    63  57  82 CALM      29.80S
$$

WIZ017-030-035>037-045-201300-
CENTRAL WISCONSIN

CITY           SKY/WX    TMP DP  RH WIND       PRES   REMARKS
MEDFORD        NOT AVBL
WAUSAU         CLOUDY    60  58  92 NW7       29.85R
MOSINEE        CLOUDY    57  57 100 N9        29.86S FOG
MARSHFIELD     FOG       60  59  96 NE7       29.84S VSB 1/4
WISC RAPIDS    CLEAR     61  60  97 CALM      29.84F
STEVENS POINT  NOT AVBL
WAUPACA        PTCLDY    64  63  95 CALM      29.83S
SHAWANO        MOCLDY    62  60  93 CALM      29.83R
CLINTONVILLE   PTCLDY    61  59  94 NW6       29.82S
$$

WIZ038-039-048-051-201300-
FOX VALLEY

CITY           SKY/WX    TMP DP  RH WIND       PRES   REMARKS
NWS GREEN BAY  MOCLDY    61  61 100 CALM      29.82R
APPLETON       PTCLDY    59  59 100 W6        29.82S
OSHKOSH        CLEAR     62  61  96 NW6       29.82S
FOND DU LAC    CLEAR     62  60  93 CALM      29.82S
$$

WIZ022-050-052-201300-
EAST CENTRAL WISCONSIN

CITY           SKY/WX    TMP DP  RH WIND       PRES   REMARKS
STURGEON BAY   CLOUDY    63  59  88 NW6       29.82R
MANITOWOC      NOT AVBL
SHEBOYGAN      FOG       62  61  96 CALM      29.82S VSB 1/2
$$

LMZ563-521-522-541>543-201300-
LAKESHORE

STATION/POSITION TIME  TEMP    WIND        PRES    VSBY  WAVE
                       AIR SEA DIR/SP/G                  HT/PER
                 (UTC) (F)     (DEG/KT/KT) (MB)    (MI)  (FT/S)
SHEBOYGAN LKSHOR 1100   65 66  280/  7/  7 1009.8R
KEWAUNEE LKSHORE 1100   62     310/  2/  2 1008.6R
NORTHPORT PIER   1100   63     340/ 11/ 13 1009.1R
N MID LAKE BUOY  1100   61 62  300/ 10/ 12 1007.8R         1/ 3
S GREEN BAY BUOY 1100   65     VRB 10      1010.3R
SISTER BAY LKSHO 1100   63     350/ 10/ 10   N/A
CHAMBERS ISLAND  1100   63     300/  6/  9 1009.8R
MENOMINEE LKSHOR 1100   63     290/  4/  7 1010.0R
$$



USA.gov is the U.S. government's official web portal to all federal, state and local government web resources and services.